OBJECT C, 62727

Orbit data source: Space-Track

You're viewing an Uncataloged Satellite

Recently launched and/or uncataloged satellites may have evolving metadata. Metadata may include but not limited to: Owner, Maufacturer, Bus, Motor, and Mission.

OBJECT C, 62727 is a Chinese satellite in SSO that was launched on Fri, 17 Jan 2025 UTC via a CHANG ZHENG 2D launch vehicle from the Jiuquan Satellite Launch Center, China (JSC). Unknown objects in Earth's orbit typically refer to objects detected orbiting the Earth but have not yet been identified or cataloged. These objects could be anything from previously untracked satellites, spent rocket stages, debris from satellite collisions, or even natural meteoroids temporarily captured by Earth's gravity.

Loading next visibility...
OBJECT C details
Identifier
62727, 2025-012C
Orbit
SSO
Last TLE update9 hours ago
Origin
Flag of CNHANGZ (CN / PRC)
ManufacturerShikong Daoyu
MissionOperational spacecraft
Bus & MotorLANTAN, Unknown motor
Mass66 kg wet, 66 kg dry
Launch date (UTC)
2025-01-17 (3 weeks ago)
Launch vehicle
CHANG ZHENG 2D
Launch site
Jiuquan Satellite Launch Center, China (JSC)
Object typeUnknown
Shape & HBRUnknown
Radar Cross SectionMedium (>0.1 m² and <1 m²)

Expand to show TLE details & history

TLE from 9 hours ago
0 OBJECT C
1 62727U 25012C   25035.78041442  .00014627  00000-0  78811-3 0  9997
2 62727  97.4772 111.4238 0009073 201.9089 158.1756 15.14869377  2781
Epoch: 2025-02-04T18:43Z
Definitive object data (Epoch: 2025-02-04T18:43:47.805Z)
Latitude-0.00009°
Longitude55.29383°
Altitude530.27 km
Speed7.595 km/s
True Right ascension07h 25m 41s
True Declination0° 00' 00"
Sunlit
Object was in full shadow at TLE epoch
Visualization TLE readout
Latitude-12.20136°
Longitude57.29863°
Altitude532.07 km
Speed7.593 km/s
Apparent Right ascension10h 05m 56s
Apparent Declination-63° 37' 17"
Sunlit
Object is in full shadow
Visualization observer readout
Local Sidereal Time06:13:04
Azimuth155.72° SSE
Elevation-23.29°
Doppler factor1
Orbital elements
Apogee altitude524.608 km
Perigee altitude512.094 km
Semi-major axis6,896.488 km
Eccentricity0.0009073
Inclination97.4772°
RAAN111.4238°
Arg. of periapsis201.9089°
True anomaly158.21421°
Mean anomaly158.1756°
Eccentric anomaly158.19491°
Mean motion3.78967 °/min
BSTAR0.00078811
Orbital period95 mins
Loading maneuver chart data...
Loading historical data...
Loading historical data...
Loading historical data...
Loading historical data...
Loading historical data...
Loading historical data...
Loading historical data...
Other satellites on launch #12 in the year 2025 (2025-01-17 UTC)

OBJECT C Visibility forecast

Observer location: undefined°, undefined

Span
Click to sort rows by Start time (UTC) header in descending order
Start Az.
Max El. time (UTC)
Max El. Az.
Max El.
End time (UTC)
End Az.
6 mins2025-02-05 04:22:15.966Z134.883° SE2025-02-05 04:25:15.966Z83.326° E27.362°2025-02-05 04:28:15.966Z14.485° NNE
5 mins2025-02-05 17:30:15.966Z30.964° NE2025-02-05 17:32:15.966Z83.922° E37.328°2025-02-05 17:35:15.966Z172.221° S
|